Date,TemperatureHighF,TemperatureAvgF,TemperatureLowF,DewpointHighF,DewpointAvgF,DewpointLowF,HumidityHigh,HumidityAvg,HumidityLow,PressureMaxIn,PressureMinIn,WindSpeedMaxMPH,WindSpeedAvgMPH,GustSpeedMaxMPH,PrecipitationSumIn
2013-1-1,53.8,45.9,35.3,51.9,42.3,30.9,94,88,72,30.03,29.76,8,2,8,0.05
2013-1-2,45.0,35.4,25.7,34.5,29.1,22.0,86,78,60,30.10,30.00,6,1,6,0.00
2013-1-3,49.9,36.1,22.7,37.8,28.5,19.4,90,75,54,30.20,30.07,8,1,8,0.00
2013-1-4,41.2,37.5,32.6,37.5,33.8,28.7,92,87,71,30.28,30.14,6,1,6,0.31
2013-1-5,65.7,43.1,29.2,52.7,37.9,25.6,94,83,53,30.15,29.99,6,0,6,0.02
2013-1-6,69.5,42.8,26.8,48.6,30.0,22.5,92,66,31,30.16,30.05,10,2,10,0.01
2013-1-7,59.2,41.5,24.1,45.0,31.0,20.5,89,68,42,30.09,29.83,8,2,8,0.00
2013-1-8,50.2,47.4,44.3,48.5,44.6,38.6,94,90,71,29.84,29.66,7,1,7,0.75
2013-1-9,58.0,54.0,49.5,56.5,52.4,47.6,95,94,93,29.80,29.62,13,2,13,1.88
2013-1-10,70.4,52.9,38.2,52.3,45.1,34.5,95,77,46,29.82,29.75,17,3,17,0.00
2013-1-11,78.3,58.2,36.0,62.0,50.5,32.8,93,78,49,29.79,29.60,16,3,16,0.01
2013-1-12,76.0,64.0,43.6,67.9,58.5,34.3,94,83,63,29.71,29.47,13,3,13,0.01
2013-1-13,63.4,44.1,33.1,37.7,29.6,22.6,73,58,34,29.96,29.71,11,2,11,0.00
2013-1-14,53.6,39.0,30.2,31.5,25.8,21.1,70,60,41,30.02,29.85,13,3,13,0.00
2013-1-15,38.5,34.6,29.2,33.3,29.5,22.5,89,82,67,30.00,29.86,9,2,9,0.02
2013-1-16,67.0,40.5,23.2,36.4,23.0,17.3,81,55,25,30.08,29.94,13,2,13,0.00
2013-1-17,79.6,48.7,27.7,44.1,30.3,19.5,78,54,23,30.26,30.04,8,1,8,0.00
2013-1-18,74.2,46.1,26.1,46.7,29.5,21.6,87,58,26,30.27,30.08,9,2,9,0.00
2013-1-19,74.5,53.1,35.6,49.0,40.3,27.8,87,65,37,30.09,29.92,13,3,13,0.00
2013-1-20,87.1,55.9,32.8,55.9,38.9,29.0,90,59,23,30.02,29.86,9,1,9,0.00
2013-1-21,90.4,55.3,36.2,58.6,40.4,32.3,90,62,30,30.03,29.91,8,1,8,0.00
2013-1-22,77.8,51.9,34.0,52.7,40.6,29.6,86,68,40,30.09,29.97,13,2,13,0.00
2013-1-23,80.6,58.6,36.9,59.0,48.4,33.3,91,71,43,30.11,29.98,13,2,13,0.00
2013-1-24,89.6,67.4,52.0,66.4,56.3,47.7,91,71,38,30.02,29.89,12,3,12,0.00
2013-1-25,61.6,60.5,59.2,58.1,56.5,54.6,89,87,81,29.91,29.86,12,4,12,0.00
2013-1-26,52.2,50.3,48.4,49.2,45.5,43.9,91,84,75,29.96,29.89,3,0,4,0.00
2013-1-27,58.7,55.6,52.2,56.3,53.2,49.4,92,92,91,29.89,29.87,9,2,9,0.00